sat.trackr.live / text

‹ back to catalog

STARLINK-4681

NORAD 53594 · 2022-104G

PAYLOAD ACTIVE UNKNOWN

§ Identity

Operator
Country
US
Launch date
2022-08-28
Launch site
AFETR
Launch vehicle
Mass (kg)
RCS (m²)

Purposes: comms

External: N2YO · Heavens-Above · Gunter

§ Orbital elements

Epoch: 2026-07-02T19:43:38.468928Z

Period
87.47 min
Inclination
53.2009°
Eccentricity
0.0008853
Mean motion
16.46239423 rev/d
Perigee alt
143.5 km
Apogee alt
155.0 km
Semi-major
6,527.4 km
B*
2.1336e-4
RAAN
44.5146°
Arg perigee
292.8077°
Mean anomaly
67.2039°
Rev number
21,406

§ Raw data

STARLINK-46811 53594U 22104G   26183.82197302  .10212467  12579-4  21336-3 0  99962 53594  53.2009  44.5146 0008853 292.8077  67.2039 16.46239423214060

JSON: /api/v1/satellites/53594 · /tle

For live sub-satellite position, see the globe view (requires WebGL).

§ Visibility from observer

Set your observer location to see the next 7 days of passes ≥ 10°. The values pass through the URL so the page stays shareable.

No JS? Fill the form by hand. The geolocation button needs JavaScript.